Theta_e
288 282 281 284 288 288 287 286 286 287 292 292 293 295 298 298 296 296 296 297 299 302 305 306 305 304 303 302 303 303 299 296 300 297 302 300 302 299 298 298 297 297 297 296
283 281 284 287 288 289 288 285 284 288 291 293 292 292 295 296 297 298 299 298 299 300 300 304 304 303 302 300 300 300 299 295 298 301 300 301 298 298 300 301 299 297 296 296
280 283 288 287 286 286 287 286 284 286 288 288 287 287 289 293 297 297 299 301 301 301 300 302 302 301 302 300 299 297 297 296 296 296 298 297 298 297 298 298 299 299 297 296
283 287 285 284 284 287 283 289 288 288 285 281 287 279 285 289 292 294 298 299 300 301 303 302 303 301 301 301 300 299 296 295 295 297 298 299 301 301 299 301 299 299 299 298
282 283 283 283 284 287 285 290 288 288 284 282 282 279 283 284 286 289 294 297 300 302 302 301 303 303 302 302 300 299 296 295 296 297 298 299 299 298 294 296 297 298 298 298
283 285 285 284 287 288 289 288 287 286 284 277 284 281 280 284 288 289 291 294 300 300 301 301 303 304 303 302 301 298 295 294 295 297 298 299 299 293 292 292 295 295 297 298
280 281 285 287 284 287 289 285 277 275 275 278 281 280 286 288 288 289 290 292 295 296 298 299 299 300 300 300 299 298 296 294 294 296 297 298 298 292 293 292 293 292 293 294
276 273 282 286 285 284 285 286 278 271 273 276 278 278 283 290 294 290 289 289 289 290 292 296 298 299 299 299 299 299 297 296 294 294 296 297 295 294 294 293 292 293 294 295
274 276 281 285 287 288 284 283 287 278 269 275 277 280 285 288 288 287 288 289 289 289 291 292 293 297 297 299 299 300 298 297 295 294 294 294 294 294 294 292 292 293 292 294
279 275 280 282 286 286 286 289 281 278 268 270 276 277 280 284 286 286 287 287 288 290 291 293 293 293 294 298 298 298 299 298 296 295 294 294 294 294 293 292 292 292 292 293
280 278 277 282 281 282 281 281 284 283 278 275 273 276 284 287 287 287 288 289 289 290 291 292 293 294 294 296 297 297 297 296 296 295 294 293 293 293 293 293 293 293 293 293
284 280 274 277 281 283 282 284 286 280 278 276 278 278 285 286 287 288 287 289 289 289 290 291 292 293 293 294 295 296 296 297 296 296 294 294 294 293 293 293 293 293 293 293
284 278 266 274 278 280 280 283 287 285 281 280 277 278 286 287 287 288 287 288 288 288 289 291 292 292 292 293 293 294 295 296 296 295 295 294 294 294 293 293 293 293 293 293
289 280 278 274 277 279 278 281 281 285 277 279 280 279 283 285 287 287 287 287 288 288 289 289 290 290 291 292 292 293 293 294 294 294 294 293 293 293 293 293 293 293 293 292
285 274 279 279 279 280 280 282 282 281 285 279 280 280 283 286 288 288 288 287 288 289 289 289 289 289 289 290 291 292 293 293 293 292 292 292 293 293 293 292 292 292 292 291
284 273 278 272 280 281 279 281 283 284 282 284 281 280 286 290 289 287 288 289 289 289 290 290 290 290 290 291 291 292 292 292 293 292 292 292 292 292 291 291 291 291 290 290
281 275 269 274 278 278 270 278 280 283 285 285 280 286 285 286 287 289 289 289 290 290 290 290 290 290 290 291 292 291 291 292 291 291 291 291 291 291 291 291 290 290 290 290
275 275 272 266 269 268 280 283 283 282 283 286 286 286 289 288 291 291 292 291 290 291 291 291 291 290 290 291 291 291 291 290 289 289 289 289 289 289 289 290 289 289 289 287
284 280 276 275 263 273 279 281 281 280 281 284 286 287 286 286 287 287 291 293 293 292 292 292 291 290 290 290 290 289 288 288 288 287 287 288 288 288 287 287 287 287 286 285
284 285 280 272 268 266 277 283 285 286 279 286 287 287 288 286 283 289 289 292 292 292 292 290 290 290 290 289 289 288 287 286 286 286 285 286 287 287 286 285 285 284 285 284
272 274 276 274 270 272 281 283 286 276 280 286 288 289 285 287 291 288 291 292 293 292 291 290 289 289 289 289 288 286 286 285 285 284 284 284 284 284 285 284 284 283 283 283
277 275 273 270 269 270 283 283 282 285 285 286 285 287 287 290 288 289 291 290 290 289 289 289 287 287 287 288 287 285 285 284 284 284 283 283 283 284 284 282 283 283 283 284
276 280 276 279 278 284 284 283 286 286 286 286 286 286 286 286 286 289 289 289 288 288 286 287 286 285 285 285 286 284 283 285 284 283 282 281 281 282 283 282 281 282 283 283
279 282 280 281 283 283 285 286 286 287 287 287 287 287 287 286 287 286 287 287 287 286 285 285 285 284 284 284 284 284 284 285 284 282 282 282 281 281 281 282 283 282 282 282
280 282 278 278 281 282 285 285 287 286 287 286 285 285 287 286 285 286 286 286 286 285 284 285 284 284 283 284 283 284 284 284 283 283 282 283 283 283 283 283 283 283 283 283
280 281 282 281 284 286 287 289 286 286 287 286 285 284 283 285 285 285 284 285 285 284 284 284 284 283 283 283 283 283 284 285 284 283 282 283 283 283 282 283 283 286 286 286
Wind_Speed
4 5 10 12 12 6 7 6 10 4 7 6 13 19 13 8 6 7 9 12 13 17 14 14 15 15 15 14 15 15 14 10 9 5 6 4 6 4 3 5 7 8 7 7
0 13 9 7 7 7 9 5 6 6 4 7 8 18 11 6 9 13 14 11 15 12 9 13 14 15 17 17 16 15 16 12 11 8 4 3 3 2 3 5 6 8 8 7
8 6 15 10 7 13 11 20 5 6 3 2 3 8 6 7 10 7 10 11 15 18 18 15 16 18 16 18 18 17 17 15 13 9 5 3 3 2 3 4 4 7 7 8
10 10 6 8 13 14 19 7 7 7 2 5 5 7 7 7 13 10 17 16 16 18 14 15 18 17 19 18 16 16 14 14 12 11 11 13 10 10 5 7 4 5 7 8
11 9 14 13 14 13 10 9 11 7 5 1 4 2 7 2 8 10 16 17 18 18 18 18 20 21 19 16 16 15 15 14 14 15 14 11 11 5 3 3 6 6 6 7
8 2 7 9 8 10 8 2 3 3 4 5 13 8 6 7 9 6 6 14 18 16 16 17 19 17 15 12 13 14 15 14 13 14 14 15 15 7 5 4 5 4 4 5
4 6 3 4 8 6 7 8 1 1 1 13 6 8 17 8 8 8 10 10 9 8 11 13 13 13 13 15 14 14 16 15 14 16 15 15 14 10 9 7 6 6 4 4
10 4 12 6 9 11 14 11 7 8 5 4 3 9 9 12 15 8 5 4 4 7 6 10 12 14 14 15 16 16 16 15 15 15 14 12 9 7 7 7 6 5 6 6
8 10 1 5 5 11 8 12 9 5 2 2 6 7 10 7 7 4 6 6 7 4 5 6 6 8 10 13 15 16 14 13 14 14 11 11 10 10 10 8 6 6 5 5
3 1 2 2 3 3 9 9 7 0 4 5 5 5 6 5 11 7 7 7 5 4 4 4 3 4 5 7 9 9 12 14 14 13 12 11 11 11 8 6 8 7 6 6
2 4 2 4 8 13 4 6 6 4 6 6 3 8 9 14 7 13 11 9 8 7 5 3 2 1 3 4 7 8 9 9 9 10 9 8 8 8 7 7 6 6 5 6
13 4 4 11 4 2 2 9 16 9 14 3 2 7 4 7 8 7 8 7 5 6 5 4 4 4 4 5 5 7 7 8 9 8 7 8 7 6 6 6 6 6 6 5
14 6 3 6 6 2 6 8 16 11 3 18 8 8 4 5 5 3 8 7 5 5 6 4 4 4 4 4 5 6 6 6 6 7 7 6 6 6 6 6 6 6 6 6
18 5 15 14 12 6 6 8 5 15 5 7 18 4 2 2 5 5 5 5 6 5 6 4 4 3 4 4 5 6 6 6 6 6 6 6 6 6 6 5 5 5 5 5
12 10 7 9 4 4 6 14 13 9 19 10 6 9 6 9 11 12 10 8 7 7 6 5 5 5 4 5 5 5 5 6 6 7 6 6 5 5 5 4 4 3 3 3
5 6 5 2 3 5 5 12 19 23 8 19 6 7 8 11 4 9 10 13 11 11 9 7 6 6 6 6 5 5 6 6 6 7 6 6 6 6 6 5 5 5 4 4
10 8 5 16 1 5 6 11 17 19 14 15 12 17 5 5 9 12 11 10 11 11 12 12 10 8 6 6 6 6 6 7 8 7 6 6 6 6 6 6 6 5 5 5
7 8 4 3 3 5 14 9 12 15 9 16 13 7 12 8 14 11 13 18 15 13 12 11 10 8 7 6 7 7 7 7 8 7 6 5 6 6 6 6 6 5 4 5
5 6 4 6 5 5 8 7 9 11 17 7 12 11 7 3 5 8 14 13 16 16 13 11 10 8 7 8 7 9 8 7 7 6 5 5 5 6 6 6 6 5 5 5
4 7 9 4 6 10 4 8 8 6 16 14 17 18 15 8 5 16 14 11 12 11 12 14 12 10 9 7 8 9 8 7 7 5 5 5 5 6 6 6 5 3 5 5
5 3 11 5 4 10 8 3 4 9 15 10 20 17 10 13 21 5 12 10 15 19 19 15 14 12 10 9 9 9 8 7 5 5 5 5 5 6 6 5 3 5 6 7
9 9 5 3 2 10 7 6 16 9 2 3 4 6 10 17 7 9 15 14 17 17 17 16 14 11 9 9 10 9 9 7 6 6 6 5 5 5 5 6 5 6 7 8
3 11 10 12 10 6 7 2 3 1 5 4 4 4 5 7 7 9 12 15 18 20 16 13 14 12 8 7 8 11 9 9 8 8 7 6 5 6 5 5 6 7 8 7
1 3 5 5 7 7 6 5 4 5 4 4 4 5 5 8 10 8 12 14 14 15 17 13 15 13 10 7 6 9 9 9 9 9 8 7 8 7 6 5 6 6 6 5
5 8 7 3 2 1 7 8 8 7 5 3 3 3 7 8 9 12 12 13 13 14 13 13 13 12 11 10 9 8 9 10 10 9 8 8 7 8 8 7 6 6 4 5
6 9 10 10 10 8 8 11 6 8 9 6 5 2 2 6 11 11 11 12 14 15 14 12 12 13 11 10 9 8 9 10 10 10 7 7 7 7 6 7 8 13 12 12
Wind_Direction
217 177 201 194 204 199 196 203 216 240 232 173 215 240 235 221 196 206 208 202 207 214 212 202 192 185 182 183 184 187 176 179 174 169 186 173 188 186 178 183 187 186 191 192
168 235 213 200 194 215 234 222 247 290 245 181 236 245 236 191 217 207 211 212 214 216 205 196 188 185 187 183 187 188 188 178 186 188 183 175 147 189 177 183 193 193 192 188
188 214 197 188 193 211 225 229 221 232 329 262 340 279 237 243 226 230 220 213 214 205 207 193 189 191 186 191 186 189 189 182 188 181 136 91 93 63 180 194 195 200 191 194
231 232 169 202 222 200 227 197 208 230 144 237 160 273 248 229 239 222 231 216 208 206 208 197 193 193 198 195 188 187 183 181 184 167 187 198 203 204 202 200 192 191 191 203
226 191 201 211 211 190 215 174 199 185 199 299 229 261 270 242 252 236 230 220 213 207 196 192 196 200 198 187 187 182 182 182 182 184 191 195 204 203 160 165 183 202 202 203
228 211 178 212 184 180 178 179 60 92 120 252 224 187 240 207 219 247 238 228 214 195 191 198 200 194 196 188 181 178 180 186 183 184 191 195 206 174 167 179 196 202 206 212
177 216 223 163 157 168 184 139 253 356 211 238 175 186 245 246 250 224 254 246 216 191 182 184 181 184 180 184 179 179 181 188 184 190 193 195 202 178 192 186 194 181 206 218
187 213 179 193 180 185 193 188 170 186 201 248 88 229 251 226 247 221 208 161 155 154 166 181 185 186 182 181 181 183 184 186 188 190 194 193 185 184 196 191 186 204 207 215
169 241 339 184 169 159 199 198 176 107 39 119 219 284 301 236 250 231 193 170 178 177 158 155 157 180 176 180 186 185 180 185 186 188 185 186 185 188 197 191 187 207 203 211
241 170 198 195 119 230 183 173 179 83 154 224 263 264 237 241 231 211 218 215 195 162 158 145 155 160 171 176 172 171 177 182 183 182 186 190 193 195 195 178 201 201 208 209
223 149 276 132 200 184 164 191 203 165 161 190 206 254 219 230 199 206 205 191 183 176 176 164 153 101 128 127 155 162 160 156 163 174 178 176 184 183 179 192 201 207 200 202
191 125 179 209 270 293 190 194 196 203 220 207 168 270 345 284 269 209 173 169 164 158 158 154 154 148 137 132 134 151 151 157 170 169 163 179 168 168 181 195 204 198 213 203
168 210 62 0 350 354 208 205 204 206 80 216 204 235 354 31 42 72 141 143 146 143 132 131 128 142 143 140 136 133 137 139 141 147 157 161 167 173 193 203 206 198 207 216
169 166 203 198 205 136 193 194 202 207 202 204 225 231 214 174 164 143 135 148 149 157 150 138 121 120 124 128 134 132 126 132 134 134 144 151 164 178 186 195 199 202 202 205
175 202 196 230 219 174 187 199 197 191 221 195 204 209 214 209 194 191 167 160 159 154 165 162 145 132 114 108 107 109 114 123 130 128 133 149 154 158 162 171 177 181 175 188
182 230 147 216 199 190 233 219 205 215 208 232 174 227 212 210 166 165 182 169 176 174 172 168 152 144 135 130 123 113 117 120 117 113 114 116 114 117 119 118 119 116 112 110
157 142 116 227 198 94 334 216 206 222 216 207 198 216 177 179 187 193 177 192 190 185 173 168 166 156 145 138 129 115 106 100 96 98 96 101 107 104 105 109 106 100 92 89
127 118 119 168 70 182 249 183 203 211 213 212 227 202 212 198 203 190 199 184 184 178 169 166 158 144 136 125 109 107 101 99 99 93 94 97 103 102 98 95 98 95 92 89
163 125 101 146 196 279 262 205 177 179 242 205 218 231 221 128 100 245 204 197 186 173 160 155 146 139 132 132 127 116 105 104 102 98 95 94 108 112 110 102 98 95 94 82
102 167 147 141 162 209 262 184 153 96 268 214 198 215 205 138 194 230 177 144 136 145 150 143 137 135 138 137 128 121 120 117 114 114 114 104 106 106 107 112 103 83 86 92
111 76 183 185 225 279 231 195 147 141 258 192 194 205 154 196 224 137 140 158 157 154 148 142 143 149 148 138 131 124 130 114 119 121 112 107 104 105 100 100 83 93 88 87
154 145 174 108 137 265 190 103 181 202 148 113 129 179 189 223 159 154 166 153 150 148 146 147 141 141 139 137 132 131 123 131 128 119 111 102 97 95 90 94 86 86 97 102
151 180 170 183 199 217 195 271 321 159 155 183 151 188 203 219 200 173 159 155 153 149 143 140 136 131 132 130 140 136 138 131 118 108 105 100 91 97 105 95 98 104 104 102
202 154 162 108 216 228 219 210 219 211 229 171 212 214 195 205 175 158 152 148 148 146 144 139 136 137 135 135 125 126 131 129 126 124 122 118 108 101 90 95 102 103 99 89
181 135 158 271 269 356 271 236 218 215 225 226 182 225 237 176 170 155 150 147 146 141 137 139 140 138 136 133 126 128 135 139 134 133 131 125 118 113 109 94 88 88 79 95
190 174 181 219 189 172 215 216 172 188 225 213 172 183 111 152 151 139 138 139 140 139 139 133 134 135 137 133 132 138 147 147 140 136 136 138 132 123 112 110 101 89 92 89